Weather History for Van Nuys, CA

Change the Weather History Date:

Saturday, February 15, 2014

  Actual Average Record
Temperature  
Mean Temperature 66 °F -  
Max Temperature 82 °F 63 °F 82 °F (2014)
Min Temperature 50 °F 44 °F 36 °F (2001)
Cooling Degree Days 1    
Growing Degree Days 16 (Base 50)    
Moisture  
Dew Point 39 °F    
Average Humidity 42    
Maximum Humidity 66    
Minimum Humidity 15    
Precipitation  
Precipitation 0.00 in - - ()
Sea Level Pressure  
Sea Level Pressure 29.97 in    
Wind  
Wind Speed 1 mph (SE)    
Max Wind Speed 8 mph    
Max Gust Speed -    
Visibility 9 miles    
Events      
Averages and records for this station are not official NWS values.
T = Trace of Precipitation, MM = Missing Value Source: NWS Daily Summary

Daily Weather History Graph

Daily Weather History Graph

Search for Another Location

Airport:

Trip Planner

Search our weather history database for the weather conditions in past years. The results will help you decide how hot, cold, wet, or windy it might be!

Date:

Astronomy

Feb. 15, 2014 Rise Set
Actual Time 6:38 AM PST 5:37 PM PST
Civil Twilight 6:13 AM PST 6:03 PM PST
Nautical Twilight 5:43 AM PST 6:32 PM PST
Astronomical Twilight 5:14 AM PST 7:02 PM PST
Moon 6:37 PM PST (2/15) 6:44 AM PST (2/15)
Length of Visible Light 11h 50m
Length of Day
10h 59m
Full, 99% of the Moon is Illuminated
Feb 15
Full
Feb 22
Last Quarter
Mar 1
New
Mar 8
First Quarter
Mar 16
Full

Hourly Weather History & Observations

Time (PST) Temp. Dew Point Humidity Pressure Visibility Wind Dir Wind Speed Gust Speed Precip Events Conditions
12:51 AM 57.0 °F 44.1 °F 62% 29.97 in 9.0 mi Calm Calm - N/A   Clear
1:51 AM 55.0 °F 41.0 °F 59% 29.96 in 10.0 mi Calm Calm - N/A   Clear
2:51 AM 55.0 °F 39.9 °F 57% 29.95 in 10.0 mi Calm Calm - N/A   Clear
3:51 AM 54.0 °F 39.9 °F 59% 29.94 in 10.0 mi Calm Calm - N/A   Clear
4:51 AM 53.1 °F 39.9 °F 61% 29.95 in 10.0 mi Calm Calm - N/A   Clear
5:51 AM 50.0 °F 39.0 °F 66% 29.95 in 10.0 mi Calm Calm - N/A   Clear
6:51 AM 51.1 °F 37.9 °F 61% 29.99 in 10.0 mi Calm Calm - N/A   Clear
7:51 AM 55.9 °F 39.0 °F 53% 30.00 in 10.0 mi Calm Calm - N/A   Clear
8:51 AM 61.0 °F 39.9 °F 46% 30.02 in 10.0 mi West 3.5 mph - N/A   Clear
9:51 AM 70.0 °F 37.9 °F 31% 30.02 in 8.0 mi Calm Calm - N/A   Clear
10:51 AM 73.9 °F 34.0 °F 23% 30.02 in 9.0 mi Calm Calm - N/A   Clear
11:51 AM 82.0 °F 32.0 °F 16% 29.99 in 9.0 mi East 3.5 mph - N/A   Clear
12:51 PM 82.9 °F 30.0 °F 15% 29.97 in 10.0 mi SE 3.5 mph - N/A   Clear
1:51 PM 82.0 °F 33.1 °F 17% 29.95 in 10.0 mi SSE 8.1 mph - N/A   Clear
2:51 PM 80.1 °F 33.1 °F 18% 29.94 in 10.0 mi SE 6.9 mph - N/A   Clear
3:51 PM 78.1 °F 35.1 °F 21% 29.95 in 9.0 mi SE 4.6 mph - N/A   Clear
4:51 PM 75.0 °F 36.0 °F 24% 29.95 in 7.0 mi ESE 4.6 mph - N/A   Clear
5:51 PM 72.0 °F 41.0 °F 33% 29.95 in 8.0 mi East 3.5 mph - N/A   Clear
6:51 PM 69.1 °F 42.1 °F 38% 29.96 in 7.0 mi Calm Calm - N/A   Clear
7:51 PM 66.9 °F 43.0 °F 42% 29.97 in 6.0 mi Calm Calm - N/A   Haze
8:51 PM 63.0 °F 43.0 °F 48% 29.97 in 7.0 mi Calm Calm - N/A   Clear
9:51 PM 61.0 °F 43.0 °F 52% 29.96 in 7.0 mi Calm Calm - N/A   Clear
10:51 PM 57.9 °F 43.0 °F 58% 29.97 in 6.0 mi Calm Calm - N/A   Haze
11:51 PM 57.9 °F 43.0 °F 58% 29.97 in 7.0 mi Calm Calm - N/A   Clear